This is the latest recevied weather packets stored in our database for station/object WR7DW-3. If no packets are shown the sender has not sent any weather packets the latest 10 day(s).
| Time | Temp. | Humidity | Pressure | Rain* | Wind** | Luminosity | Snow |
|---|---|---|---|---|---|---|---|
| 1777605291 | 6.11° C | 56% | 1013.8 hPa | 0 mm | - | - | - |
| 1777604391 | 6.11° C | 57% | 1013.6 hPa | 0 mm | - | - | - |
| 1777603491 | 6.67° C | 56% | 1013.7 hPa | 0 mm | - | - | - |
| 1777602591 | 6.67° C | 55% | 1013.8 hPa | 0 mm | - | - | - |
| 1777601691 | 6.67° C | 58% | 1013.8 hPa | 0 mm | - | - | - |
| 1777600791 | 6.67° C | 58% | 1013.7 hPa | 0 mm | - | - | - |
| 1777599891 | 6.67° C | 57% | 1013.7 hPa | 0 mm | - | - | - |
| 1777598991 | 7.22° C | 56% | 1013.7 hPa | 0 mm | - | - | - |
| 1777598092 | 7.22° C | 56% | 1013.7 hPa | 0 mm | - | - | - |
| 1777597192 | 7.22° C | 56% | 1013.7 hPa | 0 mm | - | - | - |
| 1777596291 | 7.78° C | 54% | 1014 hPa | 0 mm | - | - | - |
| 1777595391 | 7.78° C | 53% | 1014 hPa | 0 mm | - | - | - |
| 1777594491 | 7.78° C | 52% | 1014.1 hPa | 0 mm | - | - | - |
| 1777593592 | 7.78° C | 52% | 1014.2 hPa | 0 mm | - | - | - |
| 1777592692 | 7.22° C | 52% | 1014.4 hPa | 0 mm | - | - | - |
| 1777591792 | 7.22° C | 54% | 1014.6 hPa | 0 mm | - | - | - |
| 1777590892 | 7.22° C | 53% | 1014.9 hPa | 0 mm | - | - | - |
| 1777589992 | 7.22° C | 51% | 1014.9 hPa | 0 mm | - | - | - |
| 1777589092 | 7.22° C | 49% | 1015.2 hPa | 0 mm | - | - | - |
| 1777588192 | 7.22° C | 51% | 1015.3 hPa | 0 mm | - | - | - |
| 1777587292 | 7.22° C | 51% | 1015.3 hPa | 0 mm | - | - | - |
| 1777586392 | 6.67° C | 51% | 1015.6 hPa | 0 mm | - | - | - |
| 1777585492 | 6.67° C | 54% | 1015.8 hPa | 0 mm | - | - | - |
| 1777584592 | 6.67° C | 52% | 1015.9 hPa | 0 mm | - | - | - |
| 1777583692 | 6.11° C | 53% | 1015.9 hPa | 0 mm | - | - | - |
* Rain latest hour (hover to see other rain measurements)
** Current wind speed in m/s (hover to see current wind gust speed)